Simultaneous Nadir Overpasses (SNOs) Predictions

Prediction of SNOs between GOES-15 and LANDSAT-8 Satellite Orbit:

Table of predicted SNOs for the next 14.0 days since TLE Epoch: 5/11/2024
Index Date Time (GOES-15) GOES-15 Lat,Lon LANDSAT-8 Lat,Lon Distance(km) Time Diff (sec)
1 05/11/2024 17:46:42 0.17, 61.57 1.03, 65.72 471.59 80
2 05/12/2024 06:10:37 -0.17, 61.61 0.06, 60.56 119.26 80
3 05/14/2024 05:55:43 -0.18, 61.65 -0.59, 63.52 212.90 80
4 05/14/2024 18:19:46 0.17, 61.63 -0.53, 58.34 374.78 80
5 05/16/2024 18:07:31 0.17, 61.68 0.12, 61.30 42.20 80
6 05/18/2024 17:52:34 0.18, 61.72 0.70, 64.28 290.84 80
7 05/19/2024 06:16:28 -0.17, 61.76 0.41, 59.13 299.51 80
8 05/21/2024 06:01:31 -0.17, 61.81 -0.21, 62.11 33.32 80
9 05/23/2024 05:49:14 -0.17, 61.87 -0.89, 65.08 365.60 80
10 05/23/2024 18:13:15 0.16, 61.85 -0.24, 59.89 222.28 80
